Back to catalog

FENGYUN 1C DEB

AliveSSO
NORAD 31439·DEBRIS·🇨🇳 China

Launched May 10, 1999 from Taiyuan Satellite Launch Center

Loading…

Next Passes (next 24 hours)

TLE

FreshSource: Space-Track

Epoch: Sep 14, 2026, 05:49 UTC

1 31439U 99025BUB 26257.24285943  .00000893  00000-0  62876-3 0  9996
2 31439  98.9202 259.5971 0137985 123.4367 299.4829 13.96109969670761

Track FENGYUN 1C DEB in real time with AllMySat

Download on the App Store